Skip Navigation Links weather.gov 
NOAA logo-Select to go to the NOAA homepage NDBC Title GraphicClick to go to NDBC home page   Select to go to the NWS homepage
Home About Us Contact Us
 
 
    
    Station List

 Data Access
    Mobile Access
    Classic Maps
         Recent
         DART®
    Obs Search
    Ship Obs Report
    BuoyCAMs
    TAO
    DODS
    OceanSITES
    HF Radar
    OSMC
    Dial-A-Buoy
    RSS Feeds Image indicating link to RSS feed access page
    Web Widget
    Email Access
    Web Data Guide
    Maintenance Schedule
    Station Status Report

 Program Info
    TAO
    DART®
    VOS
    IOOS®

 Publications
    NDBC PEA
    NDBC FONSI
    NDBC DQC Handbook

 FAQ
 Visitor Information
 
USA.gov is the U.S. government's official web portal to all federal, state and local government web resources and services.

The NDBC website is now available only via HTTPS. Please update your bookmarks and/or links to use https://www.ndbc.noaa.gov/.

Station PPXC1 - 9414847 - Point Potrero, Richmond, CA Image indicating link to RSS feed of recent meteorological observations for station PPXC1

Large icon indicates selected station.
yellow diamond Stations with recent data
red diamond Stations with no data in last 8 hours
     (24 hours for tsunami stations)


Conditions at PPXC1 as of
(9:00 am PDT)
1600 GMT on 07/20/2018:
     

Click on the graph icon in the table below to see a time series plot of the last five days of that observation.

5-day plot - Wind Direction Wind Direction (WDIR): WSW ( 250 deg true )
5-day plot - Wind Speed Wind Speed (WSPD): 7 kts
5-day plot - Wind Gust Wind Gust (GST): 10 kts
5-day plot - Atmospheric Pressure Atmospheric Pressure (PRES): 29.94 in
5-day plot - Pressure Tendency Pressure Tendency (PTDY): +0.03 in ( Rising )
5-day plot - Air Temperature Air Temperature (ATMP): 59.4 °F
5-day plot - Wind Speed at 10 Meters Wind Speed at 10 meters (WSPD10M): 8 kts
5-day plot - Wind Speed at 10 Meters Wind Speed at 20 meters (WSPD20M): 8 kts
5-day plot - Wind Speed, Wind Gust and Atmospheric Pressure Combined plot of Wind Speed, Gust, and Air Pressure
NOS Water Level Observation Network Water Level
Previous observations
5-day plot - Wind Direction 5-day plot - Wind Speed 5-day plot - Wind Gust 5-day plot - Wave Height 5-day plot - Dominant Wave Period 5-day plot - Average Period 5-day plot - Mean Wave Direction 5-day plot - Atmospheric Pressure 5-day plot - Pressure Tendency 5-day plot - Air Temperature 5-day plot - Water Temperature 5-day plot - Dew Point 5-day plot - Salinity 5-day plot - Visibility 5-day plot - Tide (above MLLW)
MM DD TIME
(PDT)
WDIR WSPD
kts
GST
kts
WVHT
ft
DPD
sec
APD
sec
MWD PRES
in
PTDY
in
ATMP
°F
WTMP
°F
DEWP
°F
SAL
psu
VIS
nmi
TIDE
ft
0720 8:54 am SW 7 9----29.94- 59.0-----
0720 8:48 am SW 7 9----29.94- 59.0-----
0720 8:36 am SW 6 10----29.94- 59.0-----
0720 8:30 am SW 7 9----29.93- 58.8-----
0720 8:18 am SW 5 8----29.93-------
0720 8:12 amWSW 7 9----29.93- 59.0-----
0720 7:54 am SW 8 10----29.92- 59.0-----
0720 7:42 am SW 7 11----29.92- 59.0-----
0720 7:36 amWSW 9 11----29.92- 58.8-----
0720 7:30 am SW 9 11----29.92- 58.8-----
0720 7:24 amWSW 6 8----29.92- 58.8-----
0720 7:12 amWSW 7 11----29.92- 58.8-----
0720 7:00 amWSW 8 12----29.92+0.01 58.8-----
0720 6:54 amWSW 8 11----29.91- 58.8-----
0720 6:42 am SW 9 13----29.91- 58.8-----
0720 6:36 amWSW 9 11----29.91- 58.8-----
0720 6:24 amWSW 8 11----29.91- 59.0-----
0720 6:18 amWSW 7 12----29.91- 58.8-----
0720 6:12 amWSW 8 11----29.91- 58.8-----
0720 6:06 amWSW 8 12----29.91- 58.8-----
0720 6:00 amWSW 8 12----29.91+0.02 58.6-----
0720 5:54 amWSW 7 12----29.91- 59.0-----
0720 5:48 amWSW 9 12----29.91- 58.8-----
0720 5:42 am SW 8 11----29.91- 58.8-----
0720 5:36 amWSW 8 11----29.91- 58.6-----
0720 5:30 amWSW 9 12----29.91- 58.6-----
0720 5:18 am SW 6 11----29.91- 58.6-----
0720 5:06 am SW 8 11----29.90- 58.8-----
0720 5:00 amWSW 6 9----29.91+0.01 58.5-----
0720 4:48 am W 6 12----29.91- 58.8-----
0720 4:42 amWSW 8 11----29.90- 58.8-----
0720 4:36 amWSW 7 11----29.90- 59.0-----
0720 4:30 amWSW 8 12----29.90- 58.5-----
0720 4:18 amWSW 7 10----29.91- 58.8-----
0720 4:06 amWSW 6 9----29.91- 59.0-----
0720 4:00 amWSW 6 9----29.91- 59.2-----
0720 3:54 am SW 7 10----29.91- 59.2-----
0720 3:48 am SW 8 11----29.91- 59.2-----
0720 3:42 am SW 6 9----29.91- 59.2-----
0720 3:36 am W 3 8----29.91- 59.4-----
0720 3:30 amWSW 5 8----29.91- 59.2-----
0720 3:24 am SW 6 8----29.90- 59.0-----
0720 3:18 amWSW 7 11----29.90- 59.0-----
0720 3:00 amWSW 9 11----29.90+0.00 59.0-----
0720 2:54 amWSW 5 12----29.90- 59.0-----
0720 2:48 amWSW 7 11----29.90- 59.0-----
0720 2:42 amWSW 9 12----29.90- 59.0-----
0720 2:24 amWSW 7 11----29.90- 59.0-----
0720 2:12 am SW 9 12----29.89- 59.4-----
0720 2:06 am SW 9 11----29.90- 59.2-----
0720 2:00 am SW 7 10----29.90- 59.4-----
0720 1:54 am SW 6 10----29.89- 59.2-----
0720 1:48 am SW 9 11----29.89- 59.2-----
0720 1:36 am SW 11 12----29.89- 59.2-----
0720 1:30 am SW 9 12----29.89- 59.2-----
0720 1:12 am SW 10 15----29.89- 59.2-----
0720 1:06 am SW 11 15----29.90- 59.2-----
072012:48 am SW 9 13----29.90- 59.2-----
072012:42 am SW 11 14----29.90- 59.2-----
072012:36 am SW 10 14----29.90- 59.0-----
072012:30 am SW 8 12----29.90- 59.0-----
072012:18 am SW 9 12----29.90- 59.2-----
072012:12 am SW 9 12----29.90- 59.0-----
072012:00 am SW 10 14----29.90+0.02 59.4-----
071911:54 pm SW 9 15----29.90- 59.2-----
071911:42 pm SW 8 10----29.90-------
071911:36 pm SW 8 11----29.90-------
071911:30 pmWSW 8 10----29.90- 59.2-----
071911:24 pm SW 6 8----29.90- 59.5-----
071911:18 pm SW 6 9----29.90- 59.4-----
071911:12 pm SW 7 11----29.90- 59.2-----
071911:06 pm SW 7 9----29.90- 59.4-----
071910:54 pm SW 9 12----29.90- 59.2-----
071910:42 pm SW 9 13----29.90-------
071910:36 pm SW 9 12----29.90-------
071910:24 pm SW 9 11----29.90- 59.4-----
071910:18 pm SW 7 11----29.90- 59.7-----
071910:00 pm SW 7 9----29.90+0.02 59.7-----
0719 9:48 pm SW 8 11----29.90- 59.9-----
0719 9:42 pm SW 8 12----29.89- 59.7-----
0719 9:36 pmSSW 7 12----29.89- 59.9-----
0719 9:24 pm SW 9 11----29.89- 60.3-----
0719 9:18 pmWSW 8 11----29.88- 60.3-----
0719 9:06 pm SW 6 9----29.89- 60.4-----
0719 9:00 pm SW 9 12----29.88+0.00 59.5-----
0719 8:48 pm SW 9 12----29.88- 60.4-----
0719 8:42 pm SW 7 11----29.88- 60.3-----
0719 8:36 pm SW 9 14----29.88- 59.9-----
0719 8:24 pm SW 8 12----29.88- 60.6-----
0719 8:18 pm SW 9 13----29.88- 60.1-----
0719 8:06 pmSSW 9 12----29.88- 60.8-----
0719 8:00 pm SW 10 15----29.88- 60.3-----
0719 7:54 pm SW 13 17----29.88- 60.3-----
0719 7:48 pm SW 14 17----29.87- 59.5-----
0719 7:42 pm SW 16 19----29.87- 59.2-----
0719 7:24 pm SW 12 17----29.88- 59.7-----
0719 7:12 pm SW 11 16----29.88- 59.7-----
0719 7:00 pmSSW 12 19----29.88-0.02 59.9-----
0719 6:36 pmSSW 13 20----29.88- 59.7-----
0719 6:30 pm SW 13 17----29.88- 60.4-----
0719 6:24 pm SW 11 17----29.88- 60.6-----
0719 6:12 pm SW 13 18----29.88- 60.6-----
0719 6:00 pmSSW 11 15----29.88-0.02 61.0-----
0719 5:54 pmSSW 11 16----29.88- 60.8-----
0719 5:48 pmSSW 9 15----29.88- 61.3-----
0719 5:36 pmSSW 12 16----29.88- 60.6-----
0719 5:30 pmSSW 12 17----29.88- 61.2-----
0719 5:24 pmSSW 13 17----29.88- 60.3-----
0719 5:18 pmSSW 12 18----29.89- 60.8-----
0719 5:12 pm SW 12 18----29.88- 61.2-----
0719 5:06 pm SW 14 21----29.88- 60.8-----
0719 4:54 pm SW 12 19----29.88- 60.6-----
0719 4:48 pmSSW 12 18----29.89- 61.0-----
0719 4:42 pm SW 12 17----29.89- 60.8-----
0719 4:36 pmSSW 12 18----29.89- 60.6-----
0719 4:30 pmSSW 15 19----29.89- 60.3-----
0719 4:24 pmSSW 13 19----29.89- 60.8-----
0719 4:18 pmSSW 14 19----29.89- 60.4-----
0719 4:12 pmSSW 13 18----29.89- 61.2-----
0719 4:06 pmSSW 12 16----29.89- 61.2-----
0719 4:00 pmSSW 12 18----29.90-0.05 60.8-----
0719 3:54 pmSSW 12 19----29.90- 60.8-----
0719 3:48 pmSSW 13 19----29.91- 60.6-----
0719 3:36 pmSSW 16 22----29.91- 59.9-----
0719 3:30 pmSSW 17 20----29.91- 60.3-----
0719 3:24 pmSSW 13 19----29.91- 60.8-----
0719 3:12 pmSSW 15 21----29.91- 60.6-----
0719 3:00 pmSSW 12 18----29.91-0.06 60.8-----
0719 2:54 pmSSW 12 17----29.91- 60.4-----
0719 2:42 pm SW 14 19----29.91- 61.0-----
0719 2:30 pm SW 14 19----29.92- 60.8-----
0719 2:18 pm SW 13 19----29.92- 60.4-----
0719 2:12 pm SW 14 19----29.92- 60.6-----
0719 2:06 pm SW 14 18----29.93- 60.6-----
0719 2:00 pm SW 13 17----29.93-0.05 60.8-----
0719 1:54 pm SW 11 16----29.93- 61.0-----
0719 1:42 pmSSW 9 13----29.94- 61.5-----
0719 1:36 pm SW 10 13----29.94- 61.5-----
0719 1:30 pm SW 10 12----29.94- 61.0-----
0719 1:24 pm SW 11 13----29.94- 61.0-----
0719 1:12 pm SW 9 12----29.94- 61.3-----
0719 1:06 pm SW 10 12----29.95- 61.0-----
0719 1:00 pm SW 10 12----29.95-0.03 61.0-----
071912:48 pm SW 10 13----29.96- 60.8-----
071912:42 pm SW 9 12----29.95- 60.8-----
071912:36 pm SW 9 11----29.95- 60.8-----
071912:30 pm SW 9 12----29.96- 60.6-----
071912:24 pm SW 11 13----29.96- 60.3-----
071912:18 pm SW 11 12----29.96- 60.1-----
071912:06 pm SW 11 13----29.96- 59.9-----
071912:00 pm SW 11 13----29.96- 59.5-----
071911:54 am SW 11 13----29.96- 60.3-----
071911:48 am SW 10 12----29.97- 59.9-----
071911:42 am SW 11 12----29.97- 59.9-----
071911:36 am SW 12 14----29.97- 59.4-----
071911:30 am SW 11 13----29.98- 59.2-----
071911:24 am SW 10 12----29.98- 59.4-----
071911:12 am SW 8 11----29.98- 59.5-----
071911:06 am SW 9 14----29.98- 59.4-----
071911:00 am SW 10 13----29.98+0.01 59.5-----
071910:54 am SW 8 11----29.98- 59.5-----
071910:48 am SW 9 13----29.98- 59.4-----
071910:42 am SW 7 10----29.98- 59.5-----
071910:30 am SW 6 9----29.98- 59.4-----
071910:24 amSSW 6 10----29.98- 59.4-----
071910:18 amSSW 8 12----29.98- 58.6-----
071910:06 am SW 7 10----29.98- 58.6-----
071910:00 amSSW 8 12----29.98- 58.6-----
0719 9:48 am SW 7 10----29.98- 59.0-----
0719 9:42 am SW 8 10----29.98- 58.5-----
0719 9:36 am SW 10 12----29.98- 58.1-----
0719 9:30 am SW 11 14----29.98- 58.1-----
0719 9:24 am SW 10 14----29.98- 58.3-----
0719 9:18 am SW 11 13----29.98- 58.3-----
0719 9:12 am SW 9 11----29.98- 58.3-----
0719 9:06 am SW 8 10----29.98- 58.3-----
0719 8:54 amWSW 7 11----29.98- 58.5-----

Description of Measurements

Links which are specific to this station are listed below:

Real Time Data in tabular form for the last forty-five days.

Historical Data & Climatic Summaries for quality controlled data for the current month, previous months, and previous years.